This is the latest recevied weather packets stored in our database for station/object KB7KFC-3. If no packets are shown the sender has not sent any weather packets the latest 10 day(s).
| Time | Temp. | Humidity | Pressure | Rain* | Wind** | Luminosity | Snow |
|---|---|---|---|---|---|---|---|
| 1778069584 | 13.33° C | 52% | 1015.8 hPa | 0 mm | - | - | - |
| 1778069405 | 13.33° C | 50% | 1015.7 hPa | 0 mm | - | - | - |
| 1778066705 | 13.89° C | 50% | 1015.5 hPa | 0 mm | - | - | - |
| 1778065264 | 13.89° C | 47% | 1015.5 hPa | 0 mm | - | - | - |
| 1778063824 | 13.89° C | 49% | 1015.4 hPa | 0 mm | - | - | - |
| 1778063645 | 13.89° C | 48% | 1015.3 hPa | 0 mm | - | - | - |
| 1778063464 | 13.89° C | 49% | 1015.2 hPa | 0 mm | - | - | - |
| 1778062743 | 13.89° C | 47% | 1015.1 hPa | 0 mm | - | - | - |
| 1778062564 | 13.89° C | 47% | 1015.1 hPa | 0 mm | - | - | - |
| 1778062024 | 13.89° C | 49% | 1015.1 hPa | 0 mm | - | - | - |
| 1778061845 | 13.89° C | 48% | 1015 hPa | 0 mm | - | - | - |
| 1778061665 | 13.89° C | 47% | 1015 hPa | 0 mm | - | - | - |
| 1778061483 | 13.89° C | 48% | 1015 hPa | 0 mm | - | - | - |
| 1778060585 | 14.44° C | 46% | 1015 hPa | 0 mm | - | - | - |
| 1778060223 | 14.44° C | 48% | 1014.9 hPa | 0 mm | - | - | - |
| 1778059864 | 14.44° C | 47% | 1014.7 hPa | 0 mm | - | - | - |
| 1778059684 | 14.44° C | 47% | 1014.8 hPa | 0 mm | - | - | - |
| 1778059144 | 14.44° C | 45% | 1014.7 hPa | 0 mm | - | - | - |
| 1778058964 | 14.44° C | 45% | 1014.6 hPa | 0 mm | - | - | - |
| 1778058243 | 14.44° C | 46% | 1014.6 hPa | 0 mm | - | - | - |
| 1778057883 | 14.44° C | 45% | 1014.5 hPa | 0 mm | - | - | - |
| 1778057345 | 15° C | 45% | 1014.5 hPa | 0 mm | - | - | - |
| 1778057165 | 15° C | 44% | 1014.5 hPa | 0 mm | - | - | - |
| 1778056804 | 15° C | 43% | 1014.6 hPa | 0 mm | - | - | - |
| 1778056624 | 15° C | 43% | 1014.6 hPa | 0 mm | - | - | - |
* Rain latest hour (hover to see other rain measurements)
** Current wind speed in m/s (hover to see current wind gust speed)